Weather in Kosaya Gora

Russia / Tula Oblast     54°07′13″N   37°32′59″E
temp.,
°C
wind,
m/s
gust,
m/s
humid.,
%
clouds,
%
prec.,
mm/h
press.,
hPa
HPBL,
m
16 april, fri
fri1600:00+11e118192 0.0 101413
03:00+9ese339034 0.0 101544
06:00+8se229034 0.0 101629
09:00+13ese346998 0.0 1016437
12:00+16ese4555100 0.0 10171287
15:00+15ese7960100 0.8 10161728
18:00+14se5967100 2.8 1016390
21:00+11se227574 3.7 101711
17 april, sat
sat1700:00+10w127893 0.1 101821
03:00+8se118360 0.1 101811
06:00+8ne359595 0.1 1018122
09:00+10ene6988100 0.4 1018544
12:00+11ene5991100 1.4 1017612
15:00+10se4895100 6.8 1017690
18:00+10e4782100 4.4 1017669
21:00+7ese149499 11.4 1018286
18 april, sun
sun1800:00+5sse3494100 0.2 101985
03:00+4ese229312 0.2 102025
06:00+5e379523 0.1 1020308
09:00+8ese358043 0.1 1020629
12:00+11ese445779 0.3 10191588
15:00+11se3355100 0.4 10191017
18:00+9ne567688 0.2 1020270
21:00+6ene6119295 0.4 1020342
19 april, mon
mon1900:00+6e699298 0.1 1020415
03:00+6ene5990100 0.1 1020449
06:00+6ene61193100 0.0 1020472
09:00+6e5992100 1.4 10201095
12:00+7ese5988100 2.5 1020971
15:00+11e676460 2.8 10191219
18:00+9ene8128553 0.5 1019749
21:00+7e8138991 0.6 1019685
20 april, tue
tue2000:00+6e8138972 0.0 1019588
03:00+5e81289100 0.0 1018650
06:00+5e81394100 0.0 1016710
09:00+6e91691100 0.0 1013713
12:00+6ene122092100 2.5 1008829
15:00+7e122292100 9.3 10041258
18:00+8ese122192100 3.8 10011050
21:00+10se81594100 4.9 1001792